Weather History for KP69 - November, 2012

Change the Weather History Date:

Sunday, November 4, 2012

  Actual Average Record
Temperature  
Mean Temperature 52 °F -  
Max Temperature 59 °F 48 °F 59 °F (2001)
Min Temperature 46 °F 32 °F 23 °F (2003)
Degree Days  
Heating Degree Days 12    
Growing Degree Days 2 (Base 50)    
Moisture  
Dew Point 47 °F    
Average Humidity 88    
Maximum Humidity 93    
Minimum Humidity 64    
Precipitation  
Precipitation 0.00 in - - ()
Sea Level Pressure  
Sea Level Pressure 30.36 in    
Wind  
Wind Speed 0 mph (North)    
Max Wind Speed 4 mph    
Max Gust Speed -    
Averages and records for this station are not official NWS values.
T = Trace of Precipitation, MM = Missing Value Source: NWS Daily Summary

Daily Weather History Graph

Daily Weather History Graph

Search for Another Location

Airport or City:

Trip Planner

Search our weather history database for the weather conditions in past years. The results will help you decide how hot, cold, wet, or windy it might be!

Date:

Astronomy

Nov. 04, 2012 Rise Set
Actual Time 7:28 AM MST 5:22 PM MST
Civil Twilight 6:56 AM MST 5:54 PM MST
Nautical Twilight 6:21 AM MST 6:30 PM MST
Astronomical Twilight 5:46 AM MST 7:05 PM MST
Moon 10:02 PM MST (11/4) 12:18 PM MST (11/4)
Length of Visible Light 10h 57m
Length of Day
9h 54m
Waning Gibbous, 71% of the Moon is Illuminated
Nov 4
Waning Gibbous
Nov 6
Last Quarter
Nov 13
New
Nov 20
First Quarter
Nov 28
Full

Hourly Weather History & Observations

Time (MST) Temp. Dew Point Humidity Pressure Visibility Wind Dir Wind Speed Gust Speed Precip Events Conditions
12:52 AM 46.9 °F 45.0 °F 93% 30.28 in - Calm Calm - N/A   Unknown
1:52 AM 46.9 °F 45.0 °F 93% 30.30 in - Calm Calm - N/A   Unknown
1:52 AM 46.9 °F 44.1 °F 90% 30.29 in - Calm Calm - N/A   Unknown
2:52 AM 46.9 °F 44.1 °F 90% 30.30 in - Calm Calm - N/A   Unknown
3:52 AM 46.0 °F 44.1 °F 93% 30.30 in - Calm Calm - N/A   Unknown
4:52 AM 46.0 °F 44.1 °F 93% 30.32 in - Calm Calm - N/A   Unknown
5:52 AM 46.9 °F 44.1 °F 90% 30.33 in - Calm Calm - N/A   Unknown
6:52 AM 46.0 °F 44.1 °F 93% 30.35 in - Calm Calm - N/A   Unknown
7:52 AM 46.9 °F 44.1 °F 90% 30.37 in - Calm Calm - N/A   Unknown
8:52 AM 46.9 °F 45.0 °F 93% 30.40 in - Calm Calm - N/A   Unknown
9:52 AM 48.9 °F 46.0 °F 90% 30.41 in - Calm Calm - N/A   Unknown
10:52 AM 50.0 °F 46.0 °F 86% 30.43 in - Calm Calm - N/A   Unknown
11:52 AM 54.0 °F 46.9 °F 77% 30.40 in - Calm Calm - N/A   Unknown
12:52 PM 59.0 °F 46.9 °F 64% 30.37 in - Calm Calm - N/A   Unknown
1:52 PM 57.9 °F 48.9 °F 72% 30.35 in - North 3.5 mph - N/A   Unknown
2:52 PM 59.0 °F 51.1 °F 75% 30.35 in - Calm Calm - N/A   Unknown
3:52 PM 55.0 °F 51.1 °F 86% 30.36 in - Calm Calm - N/A   Unknown
4:52 PM 53.1 °F 50.0 °F 89% 30.38 in - Calm Calm - N/A   Unknown
5:52 PM 52.0 °F 50.0 °F 93% 30.38 in - Calm Calm - N/A   Unknown
6:52 PM 52.0 °F 50.0 °F 93% 30.40 in - Calm Calm - N/A   Unknown
7:52 PM 51.1 °F 48.9 °F 92% 30.41 in - Calm Calm - N/A   Unknown
8:52 PM 50.0 °F 48.0 °F 93% 30.40 in - Calm Calm - N/A   Unknown
9:52 PM 51.1 °F 48.9 °F 92% 30.39 in - Calm Calm - N/A   Unknown
10:52 PM 50.0 °F 48.0 °F 93% 30.39 in - Calm Calm - N/A   Unknown